Dewpoint
45 45 45 45 46 45 45 45 45 46 46 45 44 44 43 44 43 43 42 43 43 42 42 41 40 40 40 40 39 39 39 39 40 39 39 39 40 41 41 42 42 43 44 45 46 48 49 49 51 52 54 55 57 59 60 61 60 61 61 61 60 60 59 58 56 56 58 60 60 61 62 62 62 63 62 61 62 61 61 62 63 62 62 61 59
45 45 45 44 44 44 44 44 44 45 45 46 45 44 44 43 43 42 42 42 42 41 41 41 40 40 39 39 38 38 39 39 39 39 39 39 39 41 41 41 42 43 44 45 46 48 49 49 50 49 51 53 55 57 59 60 60 60 61 60 60 59 60 59 58 57 56 57 59 61 61 62 61 63 62 61 61 61 61 62 62 62 61 61 60
44 44 43 43 43 42 42 42 42 42 43 43 44 45 45 44 43 42 41 41 42 42 41 40 40 39 39 39 38 38 38 39 39 39 39 38 39 39 41 41 42 43 44 45 46 47 47 48 48 48 49 50 51 52 54 56 58 60 60 60 60 60 60 60 58 57 57 57 58 59 60 61 61 61 62 62 61 61 61 61 62 62 61 61 61
43 42 42 42 42 41 41 41 41 41 41 41 42 42 43 44 44 41 41 41 40 41 41 40 39 39 39 38 38 38 38 38 38 38 38 38 39 39 40 40 41 43 44 44 45 46 46 46 46 47 48 48 48 49 50 50 50 53 57 60 60 60 60 60 59 58 58 57 57 58 60 60 60 62 62 61 61 60 61 61 62 61 61 61 61
42 42 42 42 42 41 41 41 41 40 40 40 41 41 41 42 43 41 40 40 40 40 40 40 39 39 39 38 38 38 38 38 38 38 38 39 39 39 39 40 40 41 42 43 45 44 44 44 45 45 46 46 46 47 47 46 46 48 50 54 59 59 59 60 59 59 58 57 57 58 59 60 61 61 60 60 60 60 61 61 61 61 61 61 61
43 42 42 42 42 42 42 42 41 41 41 40 40 40 41 41 41 42 41 40 39 40 39 39 40 38 38 38 38 38 38 38 38 38 38 38 39 39 39 40 40 39 40 41 41 42 42 42 43 44 45 45 45 46 45 44 44 44 46 49 51 57 59 59 59 58 58 58 57 56 58 59 59 60 60 60 59 59 59 60 61 61 60 60 61
42 41 41 41 41 41 41 42 42 41 41 41 41 40 40 40 40 41 42 40 40 39 39 39 40 39 38 38 38 38 38 38 39 38 38 38 38 38 39 39 39 39 39 39 40 40 41 41 42 44 44 45 45 45 45 43 42 42 44 45 47 48 53 58 58 58 58 57 57 57 57 59 59 58 60 60 60 59 58 58 57 60 60 60 59
38 38 38 38 39 40 40 40 41 42 41 41 40 40 40 40 40 41 42 41 40 40 39 39 39 39 39 38 38 39 38 38 38 38 38 38 38 38 38 39 39 39 39 39 39 39 39 40 41 42 43 44 44 44 44 42 42 41 42 43 44 45 48 52 57 58 57 57 57 56 57 57 58 60 60 60 59 59 58 57 56 56 57 59 59
36 36 36 36 37 38 39 39 39 39 40 40 40 39 39 39 39 39 39 40 41 40 39 39 38 38 38 38 38 38 38 38 39 38 38 38 38 38 38 38 38 39 38 38 39 39 39 39 40 41 44 46 44 43 43 42 41 40 40 41 42 43 45 48 53 57 57 57 57 57 57 57 57 58 58 56 56 56 58 58 57 57 57 57 58
35 35 35 35 35 35 36 37 36 36 36 37 38 38 38 37 37 36 36 37 37 38 37 37 37 37 37 37 37 38 38 38 40 39 39 38 38 38 38 37 37 38 38 38 38 38 38 38 40 44 44 43 42 41 40 40 40 40 41 41 41 41 43 45 48 53 57 57 57 57 56 56 57 58 57 57 58 58 58 57 56 56 56 56 57
35 34 34 34 34 34 34 34 34 34 35 35 36 36 36 36 35 35 35 35 36 36 35 34 35 36 36 36 36 37 37 38 38 37 38 38 38 38 37 37 37 37 37 37 37 38 38 38 38 41 42 42 41 40 39 39 38 38 39 40 41 42 43 44 47 50 54 56 57 57 56 56 57 57 57 57 57 57 57 57 57 56 55 54 52
34 34 34 34 34 33 34 33 33 34 34 34 35 35 35 35 34 34 34 35 35 34 34 33 34 34 35 35 36 36 37 38 36 37 37 37 38 38 37 37 37 37 36 36 37 37 37 37 38 39 39 40 39 38 38 38 38 38 38 39 39 40 41 45 47 48 51 54 56 56 56 56 56 57 57 57 57 57 56 56 56 55 55 54 54
34 34 34 34 33 33 33 33 33 33 33 34 35 35 34 34 34 35 34 36 35 34 33 33 33 33 34 34 35 35 36 37 36 37 37 37 37 38 36 37 37 36 36 36 36 36 36 37 37 38 38 42 41 37 36 36 38 38 39 40 40 41 40 40 42 48 50 51 53 56 57 57 56 57 58 57 56 56 56 56 55 55 55 54 55
34 33 33 33 33 33 33 33 32 33 33 33 33 33 33 33 33 35 35 34 34 34 34 33 33 33 34 33 35 35 35 37 36 37 37 37 37 37 36 36 36 36 36 36 36 36 36 36 37 37 37 37 37 36 36 36 36 37 38 39 39 41 41 41 42 44 46 50 52 53 57 57 57 57 57 57 56 56 55 55 55 55 55 55 55
34 34 34 34 34 33 33 33 33 33 33 33 33 32 33 33 33 34 33 32 32 33 34 33 33 34 33 33 35 35 35 36 36 36 37 37 37 38 37 36 36 36 36 36 36 36 35 36 37 36 36 36 36 36 36 36 36 37 37 38 39 40 41 43 44 46 48 52 52 53 55 58 58 58 58 58 57 57 56 56 56 55 56 54 52
34 34 34 34 34 34 33 33 33 33 33 33 32 32 32 32 32 34 34 31 32 32 33 33 33 32 33 33 34 34 34 36 36 37 37 37 37 38 37 36 36 36 35 35 35 36 35 36 36 36 35 35 37 36 36 36 36 36 37 37 39 40 41 43 42 42 45 47 49 53 56 57 53 57 57 58 57 57 56 55 55 54 53 53 53
34 36 35 35 35 34 34 33 33 33 33 32 32 32 32 32 32 35 31 31 31 31 33 32 33 32 33 33 34 34 34 36 36 37 37 37 38 37 37 36 36 35 35 35 35 35 35 36 36 35 35 35 36 35 35 37 36 36 37 37 38 38 39 41 41 40 41 41 42 42 42 43 43 43 46 49 53 55 55 54 53 53 53 52 52
35 36 34 36 35 35 35 34 34 34 32 32 32 32 32 32 32 34 31 31 31 31 33 32 32 33 32 32 35 33 34 36 37 36 37 37 38 37 37 36 36 36 35 35 35 34 35 39 39 35 35 35 35 35 35 36 36 36 37 37 37 37 38 39 40 41 41 41 42 43 42 42 43 43 43 44 47 51 54 53 54 54 52 52 51
35 34 35 35 35 35 34 34 33 33 33 33 33 32 33 33 34 32 32 31 32 32 35 31 31 31 32 33 36 34 34 36 37 36 37 37 38 38 37 36 36 35 35 34 34 34 34 36 38 36 36 35 35 35 35 36 36 36 37 36 36 36 37 38 39 40 42 44 45 48 49 47 49 50 51 45 44 50 55 55 54 53 52 52 52
35 35 35 35 35 35 36 36 35 33 33 33 33 34 35 32 32 31 31 31 31 31 32 32 31 31 31 32 33 33 34 35 37 36 37 37 37 38 37 36 36 35 34 34 33 34 34 34 36 35 35 35 35 35 35 35 36 36 37 36 35 35 37 38 41 43 45 45 44 48 49 48 48 49 51 51 49 52 54 55 54 54 53 53 52
35 35 35 35 35 35 34 34 34 34 33 33 35 35 34 33 32 31 31 31 31 31 31 32 31 31 31 31 32 32 35 35 36 36 36 36 37 37 37 36 36 35 34 34 33 34 34 34 35 36 35 35 35 35 35 35 35 37 36 36 36 36 37 40 42 43 45 46 47 47 47 47 47 47 47 48 49 51 53 53 54 54 54 53 52
35 35 35 35 35 35 34 34 35 35 36 34 32 32 33 33 34 32 31 31 31 31 31 32 31 31 31 31 32 31 34 36 35 36 35 36 36 36 37 37 36 36 35 34 33 34 34 34 35 36 35 34 34 35 35 35 35 37 36 35 35 35 38 41 42 43 43 43 43 43 44 44 44 44 45 45 45 46 49 52 52 54 55 54 53
35 35 35 35 36 35 35 36 36 36 36 35 32 32 32 32 32 33 31 31 31 31 31 31 31 31 31 31 31 31 32 34 35 35 35 35 36 36 36 36 35 37 35 34 34 34 34 34 35 35 34 34 34 34 35 35 35 35 34 35 35 35 38 39 40 41 41 41 41 41 42 42 42 42 43 44 45 45 46 48 50 51 52 52 52
35 35 36 35 35 36 36 37 35 35 36 35 35 32 32 33 33 32 31 31 31 31 31 32 31 31 30 30 31 31 31 32 34 35 35 35 35 35 35 35 35 36 36 35 35 35 35 34 34 34 34 34 34 34 34 35 35 34 34 35 35 36 38 38 39 39 39 39 40 40 40 41 42 42 42 43 44 45 45 46 47 48 50 50 48
34 35 34 35 35 35 35 34 34 34 34 35 34 35 34 33 31 30 32 30 30 31 31 32 31 31 31 30 30 30 31 32 33 34 35 35 35 35 35 35 35 35 36 35 35 35 34 34 34 34 34 34 34 34 35 35 34 34 34 35 37 37 37 37 37 38 38 38 38 39 40 40 41 42 43 44 44 44 44 45 45 46 47 47 46
33 33 33 34 34 35 34 34 34 34 35 35 35 33 33 35 33 31 30 30 30 31 31 32 32 32 31 31 30 30 31 32 33 34 35 35 35 35 35 35 36 36 36 35 34 34 34 34 33 33 34 34 35 34 34 35 34 34 35 36 36 36 36 36 36 36 36 37 38 38 39 40 41 42 42 43 42 42 43 43 44 44 46 47 46
34 33 33 33 33 34 34 34 34 35 34 34 35 36 35 32 33 35 32 29 30 31 31 32 32 32 32 31 31 31 31 32 33 33 34 34 35 35 35 35 36 35 36 36 35 35 34 34 33 33 33 34 33 34 34 34 34 35 35 35 35 36 36 36 36 36 36 37 37 38 39 40 41 41 41 41 41 41 42 42 42 42 43 44 44
31 31 32 33 33 33 34 34 35 34 34 33 32 32 32 31 30 31 32 31 31 31 31 31 32 31 31 31 31 30 30 31 32 33 34 35 34 34 35 35 35 36 35 35 35 35 34 34 33 33 33 33 33 33 33 34 34 34 34 35 35 36 36 36 35 36 36 36 37 37 38 39 38 39 40 40 40 40 41 41 41 41 41 42 41
32 31 31 32 33 35 35 36 35 34 33 33 33 32 32 32 32 31 30 31 31 31 31 32 33 32 32 32 31 31 31 31 33 34 35 34 34 35 35 35 35 36 35 34 35 34 33 33 33 32 32 32 32 32 33 33 34 34 34 34 35 35 35 35 34 34 35 35 35 35 35 37 37 38 38 39 39 39 40 41 40 40 40 41 39
31 31 31 32 32 33 33 33 33 33 32 32 32 32 32 34 33 32 31 35 35 34 33 33 33 33 33 33 32 32 32 32 33 34 34 34 34 34 34 34 34 34 34 33 34 33 33 32 33 33 32 32 32 32 32 33 33 33 34 33 34 34 34 34 34 34 34 34 35 34 35 35 36 36 37 37 38 39 39 38 39 40 39 39 38
31 31 32 31 31 32 31 31 31 32 31 31 31 32 32 31 33 34 34 35 35 32 30 31 33 33 33 33 33 34 33 33 34 34 34 34 34 34 34 33 33 33 33 32 32 31 31 31 32 32 33 33 32 31 32 31 31 32 32 33 34 34 33 34 34 33 33 33 33 34 34 34 34 35 35 35 36 37 38 38 38 38 38 38 38
31 31 31 31 31 31 30 30 30 30 30 29 29 30 30 29 29 31 33 34 35 35 34 34 33 30 31 33 33 33 33 33 34 34 34 34 34 34 33 33 33 33 33 33 31 31 31 32 31 32 33 32 31 31 32 32 32 32 32 32 32 32 33 33 34 35 34 33 33 33 33 33 34 34 34 34 34 35 36 35 36 35 36 36 36
31 31 30 31 32 31 31 30 30 30 30 30 30 28 28 29 27 28 30 32 32 33 32 31 30 30 30 32 34 34 34 34 34 34 34 34 33 33 33 33 33 33 33 32 31 31 32 33 33 33 33 32 33 32 32 33 33 32 32 32 32 33 34 34 33 34 33 33 33 33 33 33 33 33 33 33 34 33 34 34 35 35 35 34 34
31 31 31 31 31 31 31 30 30 30 29 29 29 29 28 28 28 28 27 28 29 31 31 33 34 34 34 34 34 34 34 34 34 34 34 33 33 33 33 32 33 33 32 32 32 31 33 33 32 33 34 34 33 33 32 33 32 32 31 32 33 34 34 34 34 34 33 33 33 32 33 34 33 34 33 34 34 34 33 33 34 34 34 34 34
31 30 28 30 31 31 31 30 30 29 29 29 29 28 29 28 27 27 27 27 28 28 29 30 31 33 33 32 33 34 34 34 34 34 33 33 33 33 32 31 31 31 31 31 31 31 31 32 31 32 34 33 33 33 33 34 33 32 32 31 31 32 32 32 33 34 33 33 33 33 32 33 34 33 34 34 33 33 33 33 34 34 34 34 34
30 30 31 32 31 31 30 30 30 30 30 30 29 29 28 28 28 28 27 27 28 28 29 29 29 30 32 33 33 33 33 33 33 33 33 33 33 32 31 30 31 31 31 30 31 31 31 31 31 31 32 33 33 33 34 34 33 33 33 32 30 30 30 31 30 31 31 32 32 32 32 32 33 33 34 34 35 34 34 34 33 33 34 34 33
29 29 30 30 30 31 30 30 30 30 28 28 28 28 28 28 27 28 27 28 28 28 28 28 29 30 31 29 32 33 33 33 33 33 33 32 32 31 31 31 31 31 31 31 31 31 31 31 31 30 31 32 33 33 33 34 33 33 32 31 31 30 30 30 30 30 30 30 30 31 32 31 32 32 32 32 33 33 33 33 33 33 33 33 33
29 29 29 29 29 29 30 30 30 28 28 28 29 28 28 28 28 28 27 27 27 26 28 29 30 29 29 30 35 31 31 31 31 31 31 31 29 30 30 30 31 31 31 31 31 31 31 31 31 31 30 30 31 32 32 32 33 33 31 31 30 30 31 28 28 29 29 29 29 30 30 30 31 31 31 32 32 32 32 33 33 33 33 33 33
30 27 26 25 27 30 30 30 29 29 29 29 29 28 26 27 27 28 28 27 27 27 27 28 29 29 30 30 29 30 31 30 28 27 28 29 30 30 30 31 31 31 31 31 31 31 31 30 31 31 31 30 30 31 31 32 32 31 32 30 29 29 29 27 28 27 27 27 28 29 29 29 30 30 31 31 31 32 32 32 33 33 33 33 33
30 29 28 27 28 28 28 28 29 29 28 29 29 28 27 26 27 27 27 27 28 27 27 27 29 29 30 29 29 29 30 29 28 28 28 28 29 31 31 30 31 31 31 31 31 31 31 30 30 31 31 30 30 30 30 30 31 31 31 29 28 28 28 28 27 27 26 27 26 27 28 29 29 29 29 30 31 31 32 32 32 33 33 33 33
29 29 27 26 26 27 27 27 28 28 29 28 29 28 28 27 27 26 27 27 27 27 27 28 29 29 30 29 30 30 30 30 30 29 29 28 29 30 31 30 29 31 31 31 31 31 30 30 30 31 31 31 30 30 29 29 29 29 29 28 27 27 27 28 28 27 27 27 26 26 26 27 28 28 28 29 30 30 31 31 32 32 33 33 33
28 27 27 27 26 25 26 27 27 28 28 28 27 28 27 27 27 27 27 26 26 27 27 28 28 29 29 31 31 31 31 30 29 29 29 30 29 30 30 30 30 31 30 31 31 31 30 30 30 30 31 31 31 30 30 29 28 28 28 27 27 27 26 26 27 27 27 26 26 26 26 26 26 26 27 29 28 28 29 30 31 31 32 32 32
28 27 27 27 25 25 25 26 27 27 27 27 28 27 27 27 28 27 26 26 27 27 27 28 28 29 29 28 28 29 31 30 28 29 29 29 30 29 30 30 30 31 31 31 30 30 29 29 29 30 31 31 31 30 29 27 27 26 26 26 26 26 26 26 26 26 26 26 26 26 26 26 25 24 24 25 26 27 28 28 29 30 31 32 32
27 26 27 27 25 24 25 25 25 26 27 27 27 27 27 27 28 28 27 28 27 27 27 28 28 28 29 28 27 29 30 30 29 30 30 29 30 29 30 30 30 30 30 30 30 29 29 28 28 30 30 30 30 31 30 29 28 26 25 25 25 26 25 24 25 25 25 25 25 25 25 26 26 25 25 25 24 25 26 28 27 28 29 30 31
27 26 27 27 26 24 23 24 25 25 25 25 26 26 26 27 27 27 28 28 26 26 27 27 27 27 27 28 29 28 29 29 28 28 29 29 29 30 30 30 30 29 29 29 29 29 28 28 27 27 28 30 29 30 29 28 27 26 26 25 23 23 23 23 23 24 25 25 25 25 25 25 25 25 25 24 24 24 25 26 26 26 27 27 29
26 27 27 27 26 23 22 23 24 25 25 25 26 26 26 27 27 27 27 27 27 27 27 27 28 28 27 28 29 27 28 29 29 29 28 29 28 29 29 29 28 29 28 28 28 28 27 27 26 26 26 27 28 29 29 28 26 26 26 24 24 22 22 23 23 24 25 26 25 24 25 25 25 26 26 25 23 24 25 26 27 26 26 26 27
26 27 27 26 25 23 22 24 25 25 25 25 26 26 26 25 26 27 27 27 27 26 27 27 28 28 29 29 29 29 29 29 29 29 29 29 29 29 29 29 28 28 28 29 28 27 26 26 25 24 25 25 26 29 30 27 25 24 24 21 20 19 19 20 22 23 25 26 26 24 25 24 24 24 25 25 24 24 25 25 26 26 26 26 26
26 27 27 26 24 23 23 25 24 25 24 25 25 25 25 25 26 26 26 26 27 26 27 28 28 29 29 29 29 29 29 29 29 28 29 29 29 29 29 28 28 28 27 28 28 27 25 25 25 25 26 26 26 27 29 28 25 25 23 19 18 17 18 18 20 22 23 26 26 25 25 24 24 24 25 25 24 23 24 24 25 25 25 25 25
25 26 26 25 24 23 23 24 24 24 24 24 25 25 25 25 25 25 26 26 26 26 26 27 28 29 29 29 29 29 29 28 28 29 29 28 29 29 29 28 27 28 26 27 27 26 27 26 25 25 25 25 26 27 27 26 25 23 22 19 17 17 17 17 18 19 20 25 26 26 26 25 25 25 25 25 24 23 24 25 26 26 25 25 25
25 26 26 26 25 24 24 24 24 23 24 24 24 24 25 25 25 25 25 25 25 26 25 26 27 29 29 29 29 29 29 29 29 29 29 29 29 29 28 28 28 27 26 26 27 26 26 25 26 25 25 26 26 26 25 25 24 22 21 21 16 16 17 17 18 18 21 22 24 24 24 25 25 25 24 24 24 25 26 25 25 25 25 25 24
26 25 26 26 26 25 24 24 24 23 23 24 24 24 25 25 25 25 25 25 25 25 25 25 26 28 29 29 29 29 29 29 29 29 30 30 30 29 28 28 28 28 27 27 27 26 26 25 26 25 25 25 26 25 24 24 22 21 20 17 16 16 16 16 18 17 19 20 24 24 24 24 25 25 24 25 24 25 24 25 25 25 25 25 24